sat.trackr.live / text

‹ back to catalog

STARLINK-1283

NORAD 45389 · 2020-019AF

PAYLOAD ACTIVE UNKNOWN

§ Identity

Operator
Country
US
Launch date
2020-03-18
Launch site
AFETR
Launch vehicle
Mass (kg)
RCS (m²)

Purposes: comms

External: N2YO · Heavens-Above · Gunter

§ Orbital elements

Epoch: 2026-05-25T02:35:59.608320Z

Period
91.77 min
Inclination
53.0397°
Eccentricity
0.0004390
Mean motion
15.69138053 rev/d
Perigee alt
358.4 km
Apogee alt
364.3 km
Semi-major
6,739.5 km
B*
4.6242e-4
RAAN
95.0209°
Arg perigee
74.1815°
Mean anomaly
285.9685°
Rev number
34,249

§ Raw data

STARLINK-12831 45389U 20019AF  26145.10832880  .00054515  00000+0  46242-3 0  99992 45389  53.0397  95.0209 0004390  74.1815 285.9685 15.69138053342491

JSON: /api/v1/satellites/45389 · /tle

For live sub-satellite position, see the globe view (requires WebGL).

§ Visibility from observer

Set your observer location to see the next 7 days of passes ≥ 10°. The values pass through the URL so the page stays shareable.

No JS? Fill the form by hand. The geolocation button needs JavaScript.